Torna al catalogo

STARLINK-34457

AttivoComunicazioniVLEO
NORAD 64368·PAYLOAD·🇺🇸 United States

Lanciato Jun 13, 2025 da Vandenberg Space Force Base

Loading…

Prossimi Passaggi (prossime 24 ore)

TLE

AggiornatoSource: CelesTrak SupGP

Epoca: Sep 15, 2026, 02:34 UTC

1 64368C 25126AA  26258.10743056 -.00016173  00000+0 -56279-3 0  2581
2 64368  70.0009 275.0850 0003397 262.9590 304.2701 15.29575113    14

Traccia STARLINK-34457 in tempo reale con AllMySat

Download on the App Store